User: anonymous   Login
Location: Oshawa
(43.9000°N, 78.8670°W)
Time: 08:04:48
(UTC-04:00)
Language:

Iridium 98 - Orbit

View from above orbital plane
View from above orbital plane
View from above satellite
View from above satellite

Ground track
Ground track

The orbit data is extracted from the following two-line orbital elements,

1 27451U 02031B   15147.52300071  .00000009  00000-0 -38859-5 0  9999
2 27451 086.3938 336.4305 0002207 090.7694 320.5351 14.34215827683562
Epoch (UTC): 27 May 2015 12:33:07
Eccentricity: 0.0002207
inclination: 86.3938°
perigee height: 776 km
apogee height: 779 km
right ascension of ascending node: 336.4305°
argument of perigee: 90.7694°
revolutions per day: 14.34215827
mean anomaly at epoch: 320.5351°
orbit number at epoch: 68356

The dashed part of the orbit path shows where the satellite is in the earth's shadow,  

DLR